| time (UTC) | temp F | wind direction | speed MPH | gust MPH | rain 1hr in | rain 24hr in | rain mn in | humidity % | barometer mb |
| 20260502220037 | 66 | 211 | 1.0 | 6.0 | 0.00 | 0.00 | 0.00 | 78 | 1014.1 |
| 20260502214535 | 65 | 360 | 3.0 | 6.0 | 0.00 | 0.00 | 0.00 | 79 | 1014.3 |
| 20260502213027 | 66 | 215 | 3.0 | 5.0 | 0.00 | 0.00 | 0.00 | 78 | 1014.3 |
| 20260502211600 | 65 | 216 | 2.0 | 6.0 | 0.00 | 0.00 | 0.00 | 78 | 1014.4 |
| 20260502210031 | 66 | 213 | 2.0 | 6.0 | 0.00 | 0.00 | 0.00 | 75 | 1014.6 |
| 20260502204525 | 67 | 240 | 1.0 | 7.0 | 0.00 | 0.00 | 0.00 | 74 | 1014.7 |
| 20260502203044 | 68 | 219 | 1.0 | 11.0 | 0.00 | 0.00 | 0.00 | 73 | 1014.7 |
| 20260502201537 | 69 | 217 | 0.0 | 1.0 | 0.00 | 0.00 | 0.00 | 69 | 1014.9 |
| 20260502200105 | 68 | 360 | 0.0 | 5.0 | 0.00 | 0.00 | 0.00 | 71 | 1015.1 |
| 20260502194601 | 67 | 251 | 1.0 | 5.0 | 0.00 | 0.00 | 0.00 | 72 | 1015.2 |
| 20260502193032 | 66 | 251 | 2.0 | 5.0 | 0.00 | 0.00 | 0.00 | 72 | 1015.3 |
| 20260502191551 | 65 | 360 | 2.0 | 5.0 | 0.00 | 0.00 | 0.00 | 75 | 1015.4 |
| 20260502190036 | 64 | 45 | 0.0 | 1.0 | 0.00 | 0.00 | 0.00 | 75 | 1015.5 |
| 20260502184529 | 62 | 220 | 3.0 | 6.0 | 0.00 | 0.00 | 0.00 | 78 | 1015.8 |
| 20260502183027 | 60 | 247 | 0.0 | 4.0 | 0.00 | 0.00 | 0.00 | 80 | 1015.9 |
| 20260502181541 | 59 | 240 | 1.0 | 5.0 | 0.00 | 0.00 | 0.00 | 80 | 1016.1 |
| 20260502163031 | 52 | 120 | 0.0 | 0.0 | 0.00 | 0.00 | 0.00 | 89 | 1017.0 |
| 20260502161543 | 52 | 246 | 0.0 | 0.0 | 0.00 | 0.00 | 0.00 | 89 | 1017.0 |
| 20260502151601 | 51 | 246 | 0.0 | 0.0 | 0.00 | 0.00 | 0.00 | 89 | 1016.7 |
| 20260502123041 | 51 | 213 | 0.0 | 0.0 | 0.00 | 0.00 | 0.00 | 89 | 1016.5 |
| 20260502121539 | 51 | 210 | 0.0 | 0.0 | 0.00 | 0.00 | 0.00 | 88 | 1016.7 |
| 20260502114544 | 51 | 210 | 0.0 | 0.0 | 0.00 | 0.00 | 0.00 | 88 | 1016.9 |
| 20260502113037 | 51 | 200 | 0.0 | 0.0 | 0.00 | 0.00 | 0.00 | 88 | 1017.0 |
| 20260502111534 | 51 | 200 | 0.0 | 0.0 | 0.00 | 0.00 | 0.00 | 88 | 1017.0 |
| 20260502110043 | 51 | 200 | 0.0 | 0.0 | 0.00 | 0.00 | 0.00 | 88 | 1017.2 |
| 20260502104536 | 51 | 200 | 0.0 | 0.0 | 0.00 | 0.00 | 0.00 | 88 | 1017.2 |
| 20260502103033 | 51 | 200 | 0.0 | 0.0 | 0.00 | 0.00 | 0.00 | 88 | 1017.4 |
| 20260502101527 | 51 | 242 | 0.0 | 0.0 | 0.00 | 0.00 | 0.00 | 88 | 1017.2 |
| 20260502071534 | 52 | 201 | 0.0 | 0.0 | 0.00 | 0.00 | 0.00 | 87 | 1017.6 |
| 20260502070043 | 52 | 262 | 0.0 | 0.0 | 0.00 | 0.00 | 0.00 | 87 | 1017.5 |
| 20260502064535 | 52 | 258 | 0.0 | 3.0 | 0.00 | 0.00 | 0.00 | 86 | 1017.5 |
| 20260502063031 | 52 | 360 | 1.0 | 3.0 | 0.00 | 0.00 | 0.00 | 86 | 1017.4 |
| 20260502060035 | 52 | 226 | 0.0 | 3.0 | 0.00 | 0.00 | 0.00 | 86 | 1017.4 |
| 20260502054529 | 52 | 241 | 1.0 | 3.0 | 0.00 | 0.00 | 0.00 | 86 | 1017.4 |
| 20260502053027 | 53 | 261 | 0.0 | 2.0 | 0.00 | 0.00 | 0.00 | 86 | 1017.5 |
| 20260502051540 | 53 | 360 | 0.0 | 5.0 | 0.00 | 0.00 | 0.00 | 86 | 1017.5 |
| 20260502050049 | 53 | 224 | 4.0 | 7.0 | 0.00 | 0.00 | 0.00 | 85 | 1017.5 |
| 20260502044524 | 53 | 244 | 3.0 | 6.0 | 0.00 | 0.00 | 0.00 | 85 | 1017.5 |
| 20260502043038 | 53 | 360 | 3.0 | 7.0 | 0.00 | 0.00 | 0.00 | 85 | 1017.4 |
| 20260502041535 | 53 | 206 | 3.0 | 7.0 | 0.00 | 0.00 | 0.00 | 85 | 1017.3 |
| 20260502034534 | 53 | 248 | 3.0 | 9.0 | 0.00 | 0.00 | 0.00 | 85 | 1017.1 |
| 20260502033032 | 53 | 231 | 3.0 | 7.0 | 0.00 | 0.00 | 0.00 | 85 | 1016.9 |
| 20260502031524 | 53 | 249 | 0.0 | 4.0 | 0.00 | 0.00 | 0.00 | 85 | 1016.7 |
| 20260502030058 | 53 | 265 | 4.0 | 9.0 | 0.00 | 0.00 | 0.00 | 85 | 1016.7 |
| 20260502024550 | 53 | 220 | 4.0 | 7.0 | 0.00 | 0.00 | 0.00 | 85 | 1016.6 |
| 20260502023043 | 54 | 257 | 6.0 | 10.0 | 0.00 | 0.00 | 0.00 | 84 | 1016.5 |
| 20260502021540 | 54 | 247 | 5.0 | 10.0 | 0.00 | 0.00 | 0.00 | 84 | 1016.6 |
| 20260502020027 | 54 | 267 | 5.0 | 12.0 | 0.00 | 0.00 | 0.00 | 84 | 1016.5 |
| 20260502014604 | 54 | 230 | 8.0 | 14.0 | 0.00 | 0.00 | 0.00 | 83 | 1016.5 |
| 20260502013036 | 55 | 241 | 8.0 | 14.0 | 0.00 | 0.00 | 0.00 | 83 | 1016.4 |
| 20260502011528 | 56 | 360 | 9.0 | 13.0 | 0.00 | 0.00 | 0.00 | 82 | 1016.4 |
| 20260502010040 | 56 | 228 | 9.0 | 12.0 | 0.00 | 0.00 | 0.00 | 83 | 1016.5 |
| 20260502004533 | 56 | 360 | 8.0 | 14.0 | 0.00 | 0.00 | 0.00 | 83 | 1016.6 |
| 20260502003031 | 56 | 256 | 9.0 | 14.0 | 0.00 | 0.00 | 0.00 | 82 | 1016.6 |
| 20260502001603 | 57 | 249 | 8.0 | 16.0 | 0.00 | 0.00 | 0.00 | 82 | 1016.5 |
| 20260502000029 | 57 | 228 | 8.0 | 14.0 | 0.00 | 0.00 | 0.00 | 82 | 1016.5 |
| 20260501234528 | 57 | 360 | 7.0 | 14.0 | 0.00 | 0.00 | 0.00 | 82 | 1016.4 |
| 20260501233040 | 58 | 360 | 7.0 | 18.0 | 0.00 | 0.00 | 0.00 | 82 | 1016.4 |
| 20260501231537 | 58 | 216 | 8.0 | 14.0 | 0.00 | 0.00 | 0.00 | 81 | 1016.5 |
| 20260501230026 | 58 | 360 | 8.0 | 16.0 | 0.00 | 0.00 | 0.00 | 82 | 1016.8 |
| 20260501224543 | 58 | 360 | 9.0 | 15.0 | 0.00 | 0.00 | 0.00 | 82 | 1016.8 |
| 20260501223036 | 59 | 360 | 8.0 | 16.0 | 0.00 | 0.00 | 0.00 | 82 | 1016.8 |
| 20260501221534 | 60 | 222 | 8.0 | 10.0 | 0.00 | 0.00 | 0.00 | 80 | 1016.8 |